This is the latest recevied weather packets stored in our database for station/object N5KJT. If no packets are shown the sender has not sent any weather packets the latest 10 day(s).
| Time | Temp. | Humidity | Pressure | Rain* | Wind** | Luminosity | Snow |
|---|---|---|---|---|---|---|---|
| 1787844615 | 19.44° C | 66% | 1029.8 hPa | 0 mm | - | 286 W/m² | - |
| 1787844315 | 19.44° C | 67% | 1029.7 hPa | 0 mm | - | 250 W/m² | - |
| 1787844015 | 19.44° C | 67% | 1029.7 hPa | 0 mm | - | 298 W/m² | - |
| 1787843716 | 18.89° C | 68% | 1029.7 hPa | 0 mm | - | 336 W/m² | - |
| 1787843415 | 18.89° C | 69% | 1029.7 hPa | 0 mm | - | 341 W/m² | - |
| 1787843116 | 18.33° C | 69% | 1029.7 hPa | 0 mm | - | 303 W/m² | - |
| 1787842816 | 18.33° C | 70% | 1029.7 hPa | 0 mm | - | 372 W/m² | - |
| 1787842516 | 17.78° C | 73% | 1029.7 hPa | 0 mm | - | 342 W/m² | - |
| 1787842216 | 17.78° C | 75% | 1029.8 hPa | 0 mm | - | 267 W/m² | - |
| 1787841916 | 17.22° C | 75% | 1029.9 hPa | 0 mm | - | 237 W/m² | - |
| 1787841616 | 17.22° C | 77% | 1029.8 hPa | 0 mm | - | 214 W/m² | - |
| 1787841316 | 17.22° C | 76% | 1029.8 hPa | 0 mm | - | 212 W/m² | - |
| 1787841016 | 16.67° C | 76% | 1029.9 hPa | 0 mm | - | 203 W/m² | - |
| 1787840716 | 16.67° C | 77% | 1029.9 hPa | 0 mm | - | 180 W/m² | - |
| 1787840416 | 16.67° C | 78% | 1029.8 hPa | 0 mm | - | 186 W/m² | - |
| 1787840116 | 16.11° C | 77% | 1029.7 hPa | 0 mm | - | 131 W/m² | - |
| 1787839816 | 16.11° C | 78% | 1029.7 hPa | 0 mm | - | 166 W/m² | - |
| 1787839516 | 16.11° C | 78% | 1029.7 hPa | 0 mm | - | 132 W/m² | - |
| 1787839216 | 15.56° C | 79% | 1029.7 hPa | 0 mm | - | 174 W/m² | - |
| 1787838916 | 15.56° C | 80% | 1029.7 hPa | 0 mm | - | 224 W/m² | - |
| 1787838616 | 15° C | 81% | 1029.7 hPa | 0 mm | - | 204 W/m² | - |
| 1787838316 | 14.44° C | 83% | 1029.7 hPa | 0 mm | - | 160 W/m² | - |
| 1787838016 | 14.44° C | 84% | 1029.7 hPa | 0 mm | - | 132 W/m² | - |
| 1787837716 | 13.89° C | 85% | 1029.7 hPa | 0 mm | - | 119 W/m² | - |
| 1787837416 | 13.33° C | 85% | 1029.7 hPa | 0 mm | - | 108 W/m² | - |
* Rain latest hour (hover to see other rain measurements)
** Current wind speed in m/s (hover to see current wind gust speed)